[[{"header":{"parameterUnit":"m.s-1","parameterCategory":1,"la1":30.2991,"la2":30.254,"lo1":-89.0895,"lo2":-89.0444,"dy":0.0017,"dx":0.0017,"nx":28,"ny":28,"refTime":"2024-12-15T03:00:00:Z","depth":0,"parameterNumber":2,"parameterNumberName":"U-component_of_WINDS"},"data":[0,0,0,0,0,0,0,0,0,0,0,0,0,0,0,0,0,0,0,0,0,0,0,0,0,0,0,0,0,0,0,0,0,0,0,0,0,0,0,0,0,0,0,0,0,0,0,0,0,0,0,0,0,0,0,0,0,0,-3.4127,-3.4128,0,-3.4179,-3.4179,-3.418,-3.4112,-3.4109,-3.4107,-3.4105,-3.4162,-3.4166,-3.417,0,0,0,0,0,0,0,0,0,0,0,0,0,-3.3977,-3.398,-3.4127,-3.4128,-3.4129,-3.4178,-3.4179,-3.418,-3.4112,-3.4109,-3.4106,-3.4103,-3.4161,-3.4165,-3.417,0,0,0,0,0,0,0,0,0,0,0,0,0,-3.4037,-3.3981,-3.4127,-3.4101,-3.4099,-3.4178,-3.4179,-3.418,-3.4113,-3.4109,-3.4106,-3.4102,-3.4159,-3.4165,-3.4171,-3.428,0,0,-3.4188,-3.4191,0,0,0,0,0,0,0,0,-3.4034,-3.4043,-3.4104,-3.4103,-3.4101,-3.4135,-3.4147,-3.4214,-3.4114,-3.4108,-3.4105,-3.41,-3.4156,-3.4162,-3.418,-3.4283,-3.4285,-3.4189,-3.4192,-3.4195,-3.4196,0,0,0,0,0,0,0,-3.403,-3.404,-3.4148,-3.4105,-3.4103,-3.4088,-3.4093,-3.416,-3.4152,-3.4108,-3.4103,-3.411,-3.4155,-3.4175,-3.4181,-3.4286,-3.4189,-3.4194,-3.4197,-3.4199,-3.4484,-3.4488,0,0,0,0,0,0,-3.4028,-3.4037,-3.4146,-3.4149,-3.4057,-3.4094,-3.4099,-3.4128,-3.4151,-3.4151,-3.4113,-3.4107,-3.4167,-3.4174,-3.4183,-3.4315,-3.4195,-3.42,-3.4203,-3.448,-3.4485,-3.449,0,0,0,0,0,0,-3.4025,-3.4038,-3.4144,-3.4092,-3.4104,-3.41,-3.4134,-3.4131,-3.415,-3.4155,-3.4154,-3.4134,-3.4164,-3.4175,-3.4257,-3.4316,-3.4203,-3.4208,-3.4475,-3.4482,-3.4487,-3.4578,0,0,0,0,0,0,-3.4021,-3.4037,-3.4078,-3.4093,-3.4107,-3.4216,-3.4137,-3.4134,-3.416,-3.4152,-3.4175,-3.4175,-3.4162,-3.4248,-3.4262,-3.4322,-3.4212,-3.447,-3.4478,-3.4485,-3.457,-3.4587,-3.4601,0,0,0,0,0,-3.4016,-3.4102,-3.408,-3.4093,-3.4157,-3.4219,-3.4227,-3.4209,-3.4165,-3.4206,-3.421,-3.4174,-3.4306,-3.4257,-3.4273,-3.4334,-3.4466,-3.4476,-3.4485,-3.4563,-3.4584,-3.4601,0,0,0,0,0,0,-3.4094,-3.4103,-3.4079,-3.4172,-3.4195,-3.4207,-3.4259,-3.4231,-3.4268,-3.426,-3.4237,-3.4243,-3.4331,-3.434,-3.4286,-3.4443,-3.4379,-3.4392,-3.4434,-3.4453,-3.4468,-3.4466,-3.4217,0,0,0,0,0,-3.4122,-3.417,-3.4176,-3.4258,-3.427,-3.4263,-3.4289,-3.4273,-3.4297,-3.4307,-3.4316,-3.4342,-3.439,-3.4421,-3.4465,-3.457,-3.4576,-3.462,-3.4636,-3.4649,-3.4661,-3.472,-3.4741,-3.452,-3.452,-3.452,0,0,-3.4181,-3.4192,-3.4224,-3.4274,-3.429,-3.4343,-3.4272,-3.433,-3.4369,-3.4316,-3.4395,-3.4402,-3.443,-3.4525,-3.4567,-3.4536,-3.4723,-3.4661,-3.4671,-3.4676,-3.4732,-3.4753,-3.4772,-3.4526,-3.4525,-3.4524,0,0,-3.4316,-3.4327,-3.4398,-3.4415,-3.444,-3.4434,-3.4452,-3.4468,-3.4471,-3.4549,-3.4511,-3.4559,-3.464,-3.4662,-3.4684,-3.4828,-3.4799,-3.4843,-3.4926,-3.4984,-3.5001,-3.5017,-3.5071,-3.5091,-3.4855,-3.4855,-3.4855,0,-3.4386,-3.4462,-3.4438,-3.4499,-3.4524,-3.4477,-3.455,-3.4568,-3.4607,-3.4626,-3.4589,-3.4692,-3.4707,-3.4808,-3.4843,-3.4862,-3.4883,-3.4842,-3.5,-3.5016,-3.503,-3.5082,-3.5102,-3.4861,-3.486,-3.4859,-3.4859,0,-3.4549,-3.4602,-3.4657,-3.4694,-3.4725,-3.4792,-3.478,-3.4814,-3.4796,-3.4795,-3.4877,-3.4893,-3.494,-3.4962,-3.4945,-3.5062,-3.5042,-3.5003,-3.494,-3.5057,-3.5105,-3.5125,-3.4868,-3.4866,-3.4865,-3.4863,0,0,-3.4735,-3.4759,-3.478,-3.4797,-3.4821,-3.4864,-3.4929,-3.4974,-3.5005,-3.5034,-3.5091,-3.5161,-3.5126,-3.5151,-3.5136,-3.5186,-3.5304,-3.5142,-3.5142,-3.5174,-3.5437,-3.5468,-3.5492,-3.5283,-3.5286,-3.5289,-3.5436,0,-3.4872,-3.4984,-3.4965,-3.5075,-3.5126,-3.5083,-3.514,-3.5163,-3.5164,-3.5209,-3.5211,-3.5263,-3.5211,-3.5226,-3.5274,-3.5279,-3.5357,-3.5268,-3.5339,-3.5342,-3.5336,-3.5516,-3.5549,-3.5687,-3.5454,-3.5458,-3.546,0,-3.5046,-3.5081,-3.5196,-3.5214,-3.5234,-3.5286,-3.5328,-3.537,-3.5396,-3.5393,-3.5422,-3.5398,-3.5466,-3.54,-3.5496,-3.5436,-3.5463,-3.5471,-3.5476,-3.5484,-3.541,-3.5533,-3.573,-3.5752,-3.5489,-3.5487,-3.5485,0,-3.5175,-3.5249,-3.5328,-3.5344,-3.5367,-3.5405,-3.5417,-3.5438,-3.5467,-3.5504,-3.5523,-3.5567,-3.5592,-3.5628,-3.5618,-3.557,-3.5718,-3.5649,-3.5721,-3.5721,-3.5756,-3.5754,-3.5963,-3.5769,-3.5769,-3.5768,-3.5768,0,-3.5331,-3.5404,-3.5387,-3.5436,-3.5517,-3.5495,-3.5577,-3.5583,-3.5603,-3.5655,-3.5619,-3.5669,-3.565,-3.57,-3.5692,-3.5775,-3.5786,-3.5788,-3.5786,-3.5793,-3.5793,-3.5813,-3.5804,-3.5774,-3.5772,-3.5771,-3.577,0,-3.5489,-3.548,-3.5564,-3.5578,-3.5583,-3.5643,-3.5656,-3.5704,-3.5702,-3.5768,-3.5782,-3.5781,-3.5837,-3.5829,-3.5892,-3.5887,-3.5991,-3.5975,-3.5982,-3.598,-3.6053,-3.6047,-3.6284,-3.6316,-3.6098,-3.61,-3.6102,0,-3.5591,-3.5646,-3.5666,-3.5697,-3.5711,-3.5762,-3.5791,-3.5772,-3.5805,-3.5839,-3.5883,-3.5936,-3.5977,-3.607,-3.6076,-3.6124,-3.6112,-3.6191,-3.6119,-3.6126,-3.6117,-3.6115,-3.6122,-3.6207,-3.6209,-3.6211,-3.6213,0,-3.5773,-3.5766,-3.5809,-3.5852,-3.5887,-3.592,-3.5949,-3.5978,-3.5962,-3.6001,-3.6057,-3.6089,-3.6153,-3.6207,-3.6253,-3.6267,-3.624,-3.6235,-3.6255,-3.6265,-3.6268,-3.627,-3.6025,-3.6231,-3.6229,-3.6228,-3.6227,-3.6226,-3.5908,-3.5956,-3.5978,-3.6028,-3.6048,-3.6077,-3.6123,-3.6127,-3.6173,-3.6223,-3.6209,-3.6274,-3.63,-3.6359,-3.6378,-3.643,-3.6402,-3.6429,-3.6437,-3.6445,-3.6455,-3.6257,-3.6438,-3.6438,-3.6437,-3.6437,-3.6436,0,-3.6092,-3.6104,-3.615,-3.6192,-3.6232,-3.6199,-3.623,-3.6267,-3.6324,-3.635,-3.6391,-3.6458,-3.651,-3.652,-3.6571,-3.6611,-3.66,-3.6626,-3.6624,-3.6629,-3.6476,-3.6456,-3.6634,-3.6634,-3.6634,-3.6634,-3.6634,-3.6634,-3.6192,-3.6272,-3.6268,-3.6359,-3.6371,-3.6433,-3.6455,-3.6482,-3.6503,-3.6578,-3.6621,-3.6627,-3.6648,-3.67,-3.6748,-3.675,-3.6772,-3.6803,-3.6801,-3.6659,-3.6639,-3.662,-3.6601,-3.6807,-3.6808,-3.6949,-3.6951,-3.6952]},{"header":{"parameterUnit":"m.s-1","parameterCategory":1,"la1":30.2991,"la2":30.254,"lo1":-89.0895,"lo2":-89.0444,"dy":0.0017,"dx":0.0017,"nx":28,"ny":28,"refTime":"2024-12-15T03:00:00:Z","depth":0,"parameterNumber":3,"parameterNumberName":"V-component_of_WINDS"},"data":[0,0,0,0,0,0,0,0,0,0,0,0,0,0,0,0,0,0,0,0,0,0,0,0,0,0,0,0,0,0,0,0,0,0,0,0,0,0,0,0,0,0,0,0,0,0,0,0,0,0,0,0,0,0,0,0,0,0,-0.9174,-0.9173,0,-0.9152,-0.9152,-0.9152,-0.9104,-0.9103,-0.9102,-0.9102,-0.908,-0.9081,-0.9081,0,0,0,0,0,0,0,0,0,0,0,0,0,-0.9174,-0.9174,-0.9174,-0.9173,-0.9173,-0.9152,-0.9152,-0.9152,-0.9105,-0.9103,-0.9102,-0.9101,-0.908,-0.9081,-0.9081,0,0,0,0,0,0,0,0,0,0,0,0,0,-0.9165,-0.9174,-0.9174,-0.9147,-0.9144,-0.9152,-0.9152,-0.9152,-0.9105,-0.9103,-0.9102,-0.9101,-0.908,-0.9081,-0.9081,-0.9113,0,0,-0.9083,-0.9083,0,0,0,0,0,0,0,0,-0.9166,-0.9165,-0.9151,-0.9149,-0.9146,-0.9129,-0.9144,-0.9139,-0.9105,-0.912,-0.9101,-0.91,-0.9098,-0.9097,-0.9096,-0.9112,-0.9111,-0.9083,-0.9083,-0.9083,-0.9083,0,0,0,0,0,0,0,-0.9167,-0.9166,-0.9165,-0.9151,-0.9148,-0.9136,-0.9133,-0.9143,-0.9117,-0.9119,-0.9115,-0.9113,-0.9096,-0.9096,-0.9095,-0.9111,-0.9083,-0.9083,-0.9083,-0.9084,-0.9152,-0.9153,0,0,0,0,0,0,-0.9171,-0.9167,-0.9166,-0.9165,-0.9153,-0.9137,-0.9134,-0.9136,-0.9117,-0.9113,-0.9114,-0.9111,-0.9095,-0.9095,-0.9094,-0.913,-0.9083,-0.9084,-0.9084,-0.9151,-0.9152,-0.9154,0,0,0,0,0,0,-0.9171,-0.9171,-0.9167,-0.9165,-0.9163,-0.9139,-0.9142,-0.9137,-0.9136,-0.9114,-0.9109,-0.9119,-0.9094,-0.9094,-0.9109,-0.9129,-0.9084,-0.9084,-0.9149,-0.9151,-0.9153,-0.9203,0,0,0,0,0,0,-0.9171,-0.9172,-0.9184,-0.9165,-0.9164,-0.9182,-0.9143,-0.9137,-0.9137,-0.9132,-0.9117,-0.9113,-0.9093,-0.9108,-0.9109,-0.9129,-0.9085,-0.9147,-0.915,-0.9152,-0.92,-0.9207,-0.9213,0,0,0,0,0,-0.9172,-0.9199,-0.9185,-0.9185,-0.9178,-0.9183,-0.9182,-0.9159,-0.9139,-0.9151,-0.9136,-0.9113,-0.9127,-0.911,-0.9111,-0.9131,-0.9145,-0.9149,-0.9152,-0.9197,-0.9206,-0.9213,0,0,0,0,0,0,-0.9221,-0.9196,-0.918,-0.9202,-0.9195,-0.9175,-0.9189,-0.9169,-0.9168,-0.9163,-0.9135,-0.9132,-0.9151,-0.9142,-0.9124,-0.9161,-0.9132,-0.9136,-0.9166,-0.9174,-0.9181,-0.9182,-0.9085,0,0,0,0,0,-0.9234,-0.924,-0.9218,-0.924,-0.9237,-0.9214,-0.9215,-0.9198,-0.9189,-0.9186,-0.9173,-0.9166,-0.9168,-0.9171,-0.9172,-0.9198,-0.9194,-0.9212,-0.9219,-0.9225,-0.9228,-0.9241,-0.9249,-0.9165,-0.9165,-0.9165,0,0,-0.9262,-0.9249,-0.9255,-0.925,-0.9242,-0.9249,-0.9212,-0.9221,-0.9225,-0.9188,-0.9201,-0.9191,-0.9181,-0.9202,-0.921,-0.9196,-0.925,-0.9229,-0.9234,-0.9234,-0.9245,-0.9253,-0.926,-0.9167,-0.9167,-0.9167,0,0,-0.9316,-0.9307,-0.9324,-0.9317,-0.9306,-0.929,-0.9294,-0.9277,-0.9269,-0.9282,-0.9254,-0.9259,-0.9264,-0.9258,-0.9255,-0.9306,-0.9285,-0.9308,-0.9343,-0.9356,-0.9362,-0.9368,-0.9386,-0.9393,-0.9311,-0.9311,-0.9311,0,-0.9352,-0.9361,-0.9336,-0.9346,-0.9344,-0.931,-0.9327,-0.9321,-0.9311,-0.9311,-0.9294,-0.9299,-0.929,-0.9309,-0.9322,-0.9321,-0.9324,-0.9309,-0.9364,-0.9369,-0.9374,-0.9391,-0.9398,-0.9314,-0.9314,-0.9314,-0.9313,0,-0.9406,-0.9413,-0.9428,-0.9418,-0.9418,-0.9432,-0.9408,-0.9412,-0.9394,-0.938,-0.9394,-0.9381,-0.9379,-0.9382,-0.9365,-0.9398,-0.9389,-0.9369,-0.9339,-0.9385,-0.9401,-0.9407,-0.9318,-0.9317,-0.9316,-0.9316,0,0,-0.9491,-0.9467,-0.9473,-0.9468,-0.9453,-0.9457,-0.9469,-0.9467,-0.947,-0.9464,-0.9473,-0.9478,-0.9458,-0.9456,-0.9438,-0.9449,-0.949,-0.9427,-0.9426,-0.9439,-0.9525,-0.9541,-0.9549,-0.9476,-0.9477,-0.9478,-0.9526,0,-0.9542,-0.9561,-0.9538,-0.9562,-0.9567,-0.9534,-0.9545,-0.9537,-0.9524,-0.9527,-0.9512,-0.9516,-0.949,-0.9488,-0.9498,-0.9483,-0.9507,-0.9479,-0.9484,-0.9484,-0.9488,-0.9557,-0.9574,-0.9621,-0.9532,-0.9533,-0.9534,0,-0.9604,-0.96,-0.9625,-0.9607,-0.9609,-0.9619,-0.9614,-0.9617,-0.9607,-0.9597,-0.9594,-0.9572,-0.9582,-0.9554,-0.9567,-0.9549,-0.9549,-0.9543,-0.9544,-0.9543,-0.9512,-0.9559,-0.9635,-0.9642,-0.9543,-0.9542,-0.9542,0,-0.9663,-0.9665,-0.9679,-0.9676,-0.9656,-0.9664,-0.9656,-0.9644,-0.9644,-0.964,-0.964,-0.9637,-0.9636,-0.9635,-0.9613,-0.9594,-0.9629,-0.9599,-0.9621,-0.9622,-0.963,-0.963,-0.9707,-0.9631,-0.963,-0.963,-0.963,0,-0.9722,-0.9739,-0.9706,-0.9715,-0.9732,-0.9705,-0.9723,-0.9711,-0.9701,-0.9707,-0.9679,-0.9685,-0.9656,-0.9659,-0.9642,-0.9656,-0.9656,-0.9648,-0.9643,-0.965,-0.9652,-0.965,-0.9647,-0.9632,-0.9632,-0.9631,-0.9631,0,-0.9792,-0.977,-0.9784,-0.9764,-0.9759,-0.9773,-0.9756,-0.9763,-0.9748,-0.9756,-0.9757,-0.9733,-0.9736,-0.9714,-0.9712,-0.97,-0.9722,-0.9712,-0.9726,-0.9722,-0.9746,-0.9744,-0.9825,-0.9834,-0.9752,-0.9753,-0.9753,0,-0.9831,-0.9843,-0.9824,-0.9825,-0.9819,-0.9823,-0.9822,-0.9796,-0.9796,-0.9785,-0.9794,-0.9794,-0.9793,-0.9798,-0.9781,-0.9779,-0.9768,-0.9797,-0.9768,-0.9775,-0.9769,-0.9768,-0.9769,-0.9803,-0.9804,-0.9805,-0.9806,0,-0.9903,-0.9891,-0.9892,-0.9888,-0.9888,-0.9884,-0.9878,-0.9882,-0.9853,-0.9855,-0.9857,-0.9856,-0.9854,-0.9854,-0.9849,-0.984,-0.9819,-0.9815,-0.982,-0.9828,-0.9835,-0.9831,-0.9742,-0.9813,-0.9813,-0.9812,-0.9812,-0.9811,-0.9958,-0.9967,-0.9954,-0.9956,-0.9948,-0.9943,-0.9949,-0.9935,-0.9936,-0.9932,-0.9916,-0.9921,-0.991,-0.99,-0.9894,-0.9897,-0.9883,-0.9891,-0.9893,-0.9895,-0.9899,-0.9835,-0.9896,-0.9896,-0.9896,-0.9896,-0.9895,0,-1.0028,-1.0019,-1.002,-1.0012,-1.0013,-0.9992,-0.9984,-0.9986,-0.999,-0.9982,-0.9981,-0.9983,-0.9983,-0.9965,-0.9963,-0.9969,-0.9959,-0.9969,-0.9968,-0.9967,-0.9912,-0.9908,-0.9977,-0.9977,-0.9977,-0.9977,-0.9977,-0.9977,-1.0065,-1.0078,-1.0065,-1.0075,-1.0065,-1.0069,-1.0066,-1.0061,-1.0054,-1.0058,-1.0057,-1.0046,-1.0034,-1.003,-1.0029,-1.0024,-1.0024,-1.0038,-1.003,-0.9979,-0.9971,-0.9963,-0.9959,-1.0038,-1.0039,-1.0084,-1.0085,-1.0085]}]]